Regional Weather Roundup
Issued by NWS Upton, NY

Current Version | Previous Version | Graphics & Text | Print | Product List | Glossary Off
Versions: 1 2 3 4 5 6 7 8 9 10 11 12 13 14 15 16 17 18 19 20 21 22 23 24 25 26 27 28 29 30 31 32 33 34 35 36 37
000 ASUS41 KOKX 230005 RWROKX REGIONAL WEATHER ROUNDUP NATIONAL WEATHER SERVICE NEW YORK NY 800 PM EDT WED OCT 22 2014 NOTE: "FAIR" INDICATES FEW OR NO CLOUDS BELOW 12,000 FEET WITH NO SIGNIFICANT WEATHER AND/OR OBSTRUCTIONS TO VISIBILITY. NYZ071-072-176-178-NJZ106-104-230100- NEW YORK CITY METRO AREA CITY SKY/WX TMP DP RH WIND PRES REMARKS CENTRAL PARK LGT RAIN 52 49 89 N8 29.81F FOG LAGUARDIA APRT LGT RAIN 53 49 86 N17G26 29.77F KENNEDY INTL LGT RAIN 53 49 86 N23G31 29.76F NEWARK/LIBERTY RAIN 53 50 89 N18G28 29.80F BRNX BOT. GARD N/A 52 48 87 NW9 29.79F TETERBORO LGT RAIN 54 46 76 N15G23 29.78F FOG $$ NYZ177-179-078>081-230100- LONG ISLAND NEW YORK CITY SKY/WX TMP DP RH WIND PRES REMARKS FARMINGDALE RAIN 52 48 86 N23G33 29.72F ISLIP LGT RAIN 52 48 86 N26G40 29.69F SHIRLEY LGT RAIN 53 48 83 N22G37 29.68F WESTHAMPTON LGT RAIN 53 49 86 N25G45 29.67F MONTAUK POINT N/A 55 52 89 N22G35 29.65F $$ NYZ052-065-067-230100- HUDSON VALLEY CITY SKY/WX TMP DP RH WIND PRES REMARKS WHITE PLAINS RAIN 51 47 86 N20G33 29.77F FOG NEWBURGH CLOUDY 50 48 93 NE17G30 29.88S FOG MONTGOMERY LGT RAIN 52 47 83 N14 29.87F POUGHKEEPSIE LGT RAIN 50 47 89 N16G28 29.87F FOG ALBANY LGT RAIN 51 45 79 N10G28 29.99F $$ NJZ001-105-106-008-010-013-015-019>022-104-230100- NEW JERSEY CITY SKY/WX TMP DP RH WIND PRES REMARKS NEWARK/LIBERTY RAIN 53 50 89 N18G28 29.80F TETERBORO LGT RAIN 54 46 76 N15G23 29.78F FOG CALDWELL LGT RAIN 51 50 97 VRB7G20 29.83F MORRISTOWN LGT RAIN 54 50 87 NE15G24 29.83F SOMERVILLE LGT RAIN 53 49 86 N8 29.82F SUSSEX LGT RAIN 53 48 83 N7 29.87F ANDOVER N/A 50 48 93 VRB7 29.86F TRENTON HVY RAIN 52 49 89 N13 29.82F FOG MILLVILLE LGT RAIN 53 51 93 NW14G22 29.81S ATLANTIC CITY RAIN 52 50 93 N17G25 29.77S FOG WRIGHTSTOWN RAIN 52 50 93 NW21 29.78F TOMS RIVER CLOUDY 52 50 93 N8G16 29.77F BELMAR CLOUDY 52 46 82 N15 29.76F $$ PAZ047>061-062-071-230100- EASTERN PENNSYLVANIA CITY SKY/WX TMP DP RH WIND PRES REMARKS PHILADELPHIA RAIN 54 50 86 N15 29.84F ALLENTOWN LGT RAIN 53 47 79 N15G21 29.89S SCRANTON CLOUDY 51 45 79 N14G21 29.95F $$ CTZ002-004>006-009-010-012-RIZ004-006-007-MAZ004-011-015-230100- SOUTHERN NEW ENGLAND IN CT CITY SKY/WX TMP DP RH WIND PRES REMARKS BRADLEY INTL LGT RAIN 51 46 83 N20G30 29.84F HARTFORD RAIN 50 46 86 N17G29 29.82F DANBURY RAIN 50 45 83 N16G23 29.83F WTRBRY/OXFORD LGT RAIN 48 43 81 NE21G38 29.80F FOG BRIDGEPORT LGT RAIN 52 48 86 N29G40 29.73F MERIDEN LGT RAIN 50 46 86 N10G28 29.80F NEW HAVEN CLOUDY 53 47 79 N31G43 29.74F CHESTER HVY RAIN 48 46 93 N12G20 29.77S GROTON LGT RAIN 50 49 96 N24G37 29.68F WILLIMANTIC LGT RAIN 50 46 86 N23G33 29.79F IN RI CITY SKY/WX TMP DP RH WIND PRES REMARKS PROVIDENCE LGT RAIN 53 51 93 N26G32 29.74F BLOCK ISLAND CLOUDY 54 50 87 N22G35 29.61F WESTERLY RAIN 52 50 93 N21G32 29.66F FOG IN MA CITY SKY/WX TMP DP RH WIND PRES REMARKS BOSTON RAIN 52 50 93 NE32G45 29.85F FOG WORCESTER LGT RAIN 45 44 97 NE21G32 29.85F FOG WESTFIELD LGT RAIN 50 47 89 N20G29 29.87F FOG PROVINCETOWN CLOUDY 55 54 94 NE25G40 29.78F NANTUCKET CLOUDY 60 59 96 NE20G33 29.65F $$ ANZ330-335-338-340-345-350-353-355-230100- COASTAL MARINE OBSERVATIONS STATION/POSITION TIME SKY/WX TEMP WIND PRES VSBY WAVE AIR SEA DIR/SP/G HT/PER (UTC) (F) (DEG/KT/KT) (MB) (MI) (FT/S) NY HARB ENTRANCE NOT AVBL 4S FIRE IS 0000 63 N/A 7/ 7 20S FIRE ISLAND 0000 55 63 10/ 29/ 37 1003.9 10/ 7 23SW MTP 0000 N/A 12/ 8 HUDSON CANYON 0000 58 66 360/ 31/ 39 1000.4 14/ 9 EXECUTION ROCKS 0000 54 63 350/ 17/ 23 N/A WESTERN LI SOUND 2300 55 20/ 19/ 23 N/A 3/ 5 CENTRAL LI SOUND 2300 54 63 20/ 31/ 41 N/A 4/ 4 EASTERN LI SOUND 2300 55 63 30/ 23/ 31 N/A ROBBINS REEF 0000 52 350/ 19/ 23 1007.4 $$ >>>>>>>>>>>>>>>>>>>>>>>>>>>> KEY <<<<<<<<<<<<<<<<<<<<<<<<<<< > < > SKY/WX - SKY CONDITION/PRESENT WEATHER < > TMP - TEMPERATURE IN FAHRENHEIT < > DP - DEWPOINT IN FAHRENHEIT < > RH - RELATIVE HUMIDITY IN PERCENT < > WIND - DIRECTION AND SPEED IN MPH < > PRES - MEAN SEA LEVEL PRESSURE IN INCHES OF HG < > WCI - WIND CHILL INDEX < > VSB - VISIBILITY IN MILES < > HX - HEAT INDEX < > TC - TEMPERATURE IN CELSIUS < > VRB - VARIABLE WIND DIRECTION < > < >>>>>>>>>>>>>>>>>>>>>>>>>>>> KEY <<<<<<<<<<<<<<<<<<<<<<<<<<<

USA.gov is the U.S. government's official web portal to all federal, state and local government web resources and services.